sat.trackr.live / text

‹ back to catalog

STARLINK-36612

NORAD 67580 · 2026-016V

PAYLOAD ACTIVE UNKNOWN

§ Identity

Operator
Country
US
Launch date
2026-01-25
Launch site
AFWTR
Launch vehicle
Mass (kg)
RCS (m²)

Purposes: comms

External: N2YO · Heavens-Above · Gunter

§ Orbital elements

Epoch: 2026-05-25T02:55:26.418720Z

Period
93.91 min
Inclination
97.2838°
Eccentricity
0.0001106
Mean motion
15.33453240 rev/d
Perigee alt
464.8 km
Apogee alt
466.3 km
Semi-major
6,843.7 km
B*
5.1349e-4
RAAN
205.5461°
Arg perigee
86.9813°
Mean anomaly
273.1556°
Rev number
1,858

§ Raw data

STARLINK-366121 67580U 26016V   26145.12183355  .00016543  00000+0  51349-3 0  99902 67580  97.2838 205.5461 0001106  86.9813 273.1556 15.33453240 18582

JSON: /api/v1/satellites/67580 · /tle

For live sub-satellite position, see the globe view (requires WebGL).

§ Visibility from observer

Set your observer location to see the next 7 days of passes ≥ 10°. The values pass through the URL so the page stays shareable.

No JS? Fill the form by hand. The geolocation button needs JavaScript.